"startDT [UTC]","vpos","CH4 [ppm]","stdev(CH4) [ppm]","CO2 [ppm]","stdev(CO2) [ppm]","H2O_reported [%]","stdev(H2O_reported)","CavityPressure [torr]","CavityTemp [C]","OutletValve","CH4_dry [ppm]","CO2_dry [ppm]","DasTemp [C]","EtalonTemp [C]","WarmBoxTemp [C]","MPVPosition","T_ECpre [C]","T_EC1 [C]","T_EC2 [C]","p_inlet [hPa]","p_in [hPa]","p_out [hPa]","T_inlet [C]","RH_inlet [%]","dwpt_inlet [C]","T_vent [C]","RH_vent [%]","dwpt_vent [C]","flow_vent [l min-1]","flow_inlet [l min-1]","dwpt_sample [C]","T_room [C]"
2015-11-03 00:00:00,0.0,1.95727,0.00063,408.525,0.099,0.1672,0.0015,140.000,45.000,31599.87482,1.96050,409.347,34.872,45.069,45.000,0.00,0.09,-272.75,-272.81,-7,522,-932,20.2,5.3,-19.9,20.4,5.4,-19.6,5.73,1.99,-11.8,26.7
2015-11-03 00:01:00,0.0,1.95754,0.00044,408.630,0.052,0.1678,0.0015,139.997,45.000,31599.95809,1.96076,409.457,34.853,45.069,45.000,0.00,0.09,-272.75,-272.81,-6,521,-932,20.3,5.3,-19.9,20.4,5.4,-19.6,5.73,1.99,-11.8,26.7
2015-11-03 00:02:00,0.0,1.95784,0.00041,408.625,0.056,0.1682,0.0015,139.997,45.000,31598.48626,1.96109,409.453,34.821,45.069,45.000,0.00,0.09,-272.75,-272.82,-7,521,-932,20.3,5.4,-19.8,20.4,5.4,-19.6,5.73,1.76,-11.8,26.6
2015-11-03 00:03:00,0.0,1.95870,0.00072,408.758,0.046,0.1682,0.0020,139.997,45.000,31597.41177,1.96189,409.587,34.827,45.069,45.001,0.00,0.09,-272.75,-272.80,-6,522,-932,20.3,5.4,-19.8,20.4,5.4,-19.5,5.73,2.13,-11.8,26.6
2015-11-03 00:04:00,0.0,1.95860,0.00108,408.688,0.069,0.1694,0.0014,140.000,45.000,31599.02895,1.96198,409.526,34.814,45.070,45.001,0.00,0.09,-272.74,-272.80,-6,521,-932,20.3,5.4,-19.7,20.5,5.4,-19.5,5.73,1.77,-11.8,26.6
2015-11-03 00:05:00,0.0,1.95809,0.00071,408.538,0.093,0.1693,0.0013,140.001,45.000,31600.21039,1.96131,409.375,34.815,45.070,45.001,0.00,0.09,-272.76,-272.81,-7,521,-932,20.3,5.4,-19.7,20.4,5.4,-19.5,5.73,2.00,-11.8,26.6
2015-11-03 00:06:00,0.0,1.95980,0.00110,408.634,0.046,0.1696,0.0017,140.000,45.000,31601.52676,1.96305,409.469,34.821,45.069,45.000,0.00,0.09,-272.75,-272.81,-6,521,-932,20.3,5.4,-19.7,20.4,5.4,-19.5,5.73,1.99,-11.8,26.6
2015-11-03 00:07:00,0.0,1.95843,0.00066,408.517,0.107,0.1691,0.0018,140.001,45.000,31602.00129,1.96170,409.351,34.861,45.069,45.000,0.00,0.09,-272.75,-272.80,-6,521,-932,20.2,5.4,-19.7,20.4,5.4,-19.5,5.73,1.77,-11.8,26.6
2015-11-03 00:08:00,0.0,1.96001,0.00077,408.598,0.029,0.1689,0.0020,139.999,45.000,31601.37477,1.96324,409.430,34.873,45.069,45.000,0.00,0.09,-272.76,-272.81,-7,521,-932,20.3,5.4,-19.7,20.4,5.4,-19.5,5.73,2.13,-11.8,26.6
2015-11-03 00:09:00,0.0,1.96009,0.00042,408.547,0.054,0.1690,0.0018,139.999,45.000,31603.28861,1.96337,409.383,34.875,45.069,45.000,0.00,0.09,-272.75,-272.81,-6,522,-932,20.3,5.4,-19.7,20.4,5.4,-19.5,5.73,1.77,-11.8,26.6
2015-11-03 00:10:00,0.0,1.96209,0.00145,408.320,0.044,0.1701,0.0023,139.996,45.000,31603.78089,1.96525,409.163,34.875,45.069,45.000,0.00,0.09,-272.75,-272.80,-6,521,-932,20.3,5.4,-19.7,20.4,5.4,-19.5,5.73,1.99,-11.8,26.6
2015-11-03 00:11:00,0.0,1.96580,0.00177,408.290,0.082,0.1699,0.0015,140.000,45.000,31602.31937,1.96904,409.123,34.875,45.069,45.000,0.00,0.09,-272.75,-272.81,-7,521,-932,20.3,5.4,-19.7,20.4,5.5,-19.5,5.73,1.99,-11.8,26.6
2015-11-03 00:12:00,0.0,1.96280,0.00250,408.235,0.129,0.1693,0.0017,139.998,45.000,31604.31223,1.96625,409.074,34.875,45.069,45.000,0.00,0.09,-272.75,-272.81,-6,521,-932,20.3,5.4,-19.7,20.4,5.5,-19.5,5.73,1.77,-11.8,26.6
2015-11-03 00:13:00,0.0,1.95975,0.00083,408.076,0.036,0.1694,0.0020,140.003,45.000,31604.70859,1.96308,408.911,34.873,45.069,45.000,0.00,0.09,-272.75,-272.80,-6,521,-932,20.3,5.4,-19.7,20.4,5.4,-19.5,5.73,2.13,-11.8,26.7
2015-11-03 00:14:00,0.0,1.95702,0.00103,407.952,0.055,0.1689,0.0016,140.001,45.000,31604.67632,1.96045,408.787,34.875,45.069,45.000,0.00,0.09,-272.74,-272.80,-7,522,-932,20.3,5.4,-19.8,20.4,5.4,-19.5,5.73,1.77,-11.8,26.7
2015-11-03 00:15:00,0.0,1.95558,0.00039,407.865,0.038,0.1693,0.0015,140.001,45.000,31606.74364,1.95882,408.698,34.876,45.069,45.000,0.00,0.09,-272.76,-272.81,-6,522,-932,20.3,5.4,-19.7,20.4,5.4,-19.5,5.73,2.00,-11.8,26.7
2015-11-03 00:16:00,0.0,1.95621,0.00043,407.868,0.031,0.1712,0.0019,139.999,45.000,31606.89892,1.95948,408.712,34.882,45.069,45.000,0.00,0.09,-272.75,-272.81,-6,521,-932,20.3,5.5,-19.6,20.4,5.5,-19.4,5.73,1.99,-11.8,26.7
2015-11-03 00:17:00,0.0,1.95626,0.00039,407.842,0.052,0.1715,0.0018,139.999,45.000,31605.84917,1.95961,408.687,34.887,45.069,45.000,0.00,0.09,-272.75,-272.80,-7,521,-932,20.3,5.5,-19.6,20.5,5.5,-19.3,5.73,1.77,-11.7,26.6
2015-11-03 00:18:00,0.0,1.95831,0.00100,407.822,0.056,0.1722,0.0013,139.998,45.000,31604.85238,1.96156,408.668,34.876,45.069,45.000,0.00,0.09,-272.76,-272.82,-6,522,-932,20.3,5.5,-19.6,20.4,5.5,-19.3,5.73,2.13,-11.8,26.7
2015-11-03 00:19:00,0.0,1.95922,0.00098,407.847,0.043,0.1738,0.0019,140.000,45.000,31605.34861,1.96249,408.702,34.874,45.069,45.000,0.00,0.09,-272.75,-272.82,-6,521,-933,20.3,5.5,-19.4,20.4,5.6,-19.3,5.73,1.77,-11.8,26.7
2015-11-03 00:20:00,0.0,1.96172,0.00050,407.837,0.063,0.1753,0.0014,140.001,45.000,31605.08252,1.96512,408.702,34.875,45.069,45.000,0.00,0.09,-272.75,-272.80,-7,522,-932,20.3,5.6,-19.3,20.4,5.6,-19.2,5.73,2.01,-11.8,26.7
"startDT [UTC]","vpos","CH4 [ppm]","stdev(CH4) [ppm]","CO2 [ppm]","stdev(CO2) [ppm]","H2O_reported [%]","stdev(H2O_reported)","CavityPressure [torr]","CavityTemp [C]","OutletValve","CH4_dry [ppm]","CO2_dry [ppm]","DasTemp [C]","EtalonTemp [C]","WarmBoxTemp [C]","MPVPosition","T_ECpre [C]","T_EC1 [C]","T_EC2 [C]","p_inlet [hPa]","p_in [hPa]","p_out [hPa]","T_inlet [C]","RH_inlet [%]","dwpt_inlet [C]","T_vent [C]","RH_vent [%]","dwpt_vent [C]","flow_vent [l min-1]","flow_inlet [l min-1]","dwpt_sample [C]","T_room [C]"
2015-11-03 00:23:00,0.0,1.96171,0.00093,407.805,0.063,0.1800,0.0019,139.999,45.000,31603.44845,1.96514,408.691,34.871,45.069,45.000,0.00,0.09,-272.76,-272.81,-7,522,-932,20.2,5.7,-19.0,20.4,5.8,-18.8,5.73,2.13,-11.8,26.7
2015-11-03 00:24:00,0.0,1.96342,0.00147,407.925,0.088,0.1819,0.0019,140.002,45.000,31602.92442,1.96698,408.822,34.871,45.069,45.000,0.00,0.09,-272.75,-272.81,-6,522,-932,20.3,5.8,-18.8,20.4,5.8,-18.7,5.73,1.77,-11.7,26.6
2015-11-03 00:25:00,0.0,1.96177,0.00117,407.817,0.086,0.1839,0.0019,140.000,45.000,31603.46766,1.96531,408.720,34.873,45.069,45.000,0.00,0.09,-272.75,-272.80,-6,521,-932,20.2,5.9,-18.7,20.4,5.9,-18.6,5.73,1.98,-11.7,26.6
2015-11-03 00:26:00,0.0,1.96306,0.00121,407.975,0.065,0.1870,0.0016,140.000,45.000,31602.51761,1.96660,408.894,34.875,45.069,45.000,0.00,0.09,-272.75,-272.81,-7,521,-932,20.2,6.0,-18.5,20.4,6.0,-18.4,5.73,2.03,-11.7,26.6
2015-11-03 00:27:00,0.0,1.96702,0.00235,408.038,0.069,0.1895,0.0016,140.000,45.000,31601.37491,1.97073,408.975,34.875,45.069,45.000,0.00,0.09,-272.75,-272.81,-6,521,-932,20.2,6.1,-18.4,20.4,6.1,-18.3,5.73,1.75,-11.7,26.6
2015-11-03 00:28:00,0.0,1.96195,0.00163,407.840,0.045,0.1901,0.0015,139.996,45.000,31598.87826,1.96578,408.776,34.874,45.069,45.000,0.00,0.09,-272.75,-272.81,-6,521,-932,20.2,6.1,-18.3,20.3,6.1,-18.2,5.73,2.11,-11.7,26.6
2015-11-03 00:29:00,0.0,1.96190,0.00191,407.861,0.069,0.1870,0.0023,139.999,44.999,31597.24004,1.96552,408.785,34.835,45.069,45.000,0.00,0.09,-272.74,-272.81,-7,521,-932,20.2,6.0,-18.5,20.3,6.1,-18.3,5.73,1.85,-11.7,26.6
2015-11-03 00:30:00,0.0,1.96026,0.00092,407.767,0.034,0.1814,0.0024,140.003,44.999,31597.44958,1.96375,408.661,34.822,45.069,45.000,0.00,0.09,-272.75,-272.81,-6,521,-932,20.1,5.8,-19.0,20.3,5.9,-18.6,5.73,1.86,-11.7,26.6
2015-11-03 00:31:00,0.0,1.95822,0.00109,407.720,0.052,0.1753,0.0026,140.001,44.999,31593.86979,1.96169,408.586,34.812,45.069,45.000,0.00,0.09,-272.75,-272.80,-6,521,-932,20.1,5.6,-19.4,20.3,5.7,-19.0,5.73,2.11,-11.7,26.5
2015-11-03 00:32:00,0.0,1.95714,0.00056,407.649,0.035,0.1700,0.0019,139.999,44.998,31593.63040,1.96048,408.486,34.792,45.069,45.000,0.00,0.09,-272.74,-272.80,-7,521,-932,20.1,5.5,-19.7,20.3,5.6,-19.4,5.73,1.76,-11.7,26.6
2015-11-03 00:33:00,0.0,1.95655,0.00058,407.693,0.045,0.1657,0.0016,139.999,44.998,31589.71122,1.95970,408.508,34.761,45.069,45.000,0.00,0.09,-272.76,-272.80,-6,521,-932,20.0,5.3,-20.0,20.3,5.4,-19.6,5.73,1.99,-11.7,26.5
2015-11-03 00:34:00,0.0,1.95748,0.00049,407.711,0.046,0.1629,0.0025,140.000,44.999,31587.67821,1.96067,408.513,34.750,45.069,45.000,0.00,0.09,-272.75,-272.81,-5,521,-932,20.0,5.3,-20.2,20.3,5.3,-19.8,5.73,2.04,-11.7,26.5
2015-11-03 00:35:00,0.0,1.95620,0.00045,407.617,0.051,0.1614,0.0013,140.000,45.000,31587.30557,1.95937,408.414,34.706,45.069,45.000,0.00,0.09,-272.75,-272.80,-7,521,-932,20.0,5.2,-20.3,20.3,5.3,-20.0,5.73,1.74,-11.7,26.5
2015-11-03 00:36:00,0.0,1.95617,0.00065,407.557,0.033,0.1611,0.0018,139.999,45.000,31586.58603,1.95932,408.348,34.690,45.069,45.000,0.00,0.09,-272.76,-272.80,-7,521,-932,20.0,5.2,-20.4,20.2,5.2,-20.1,5.73,2.06,-11.7,26.5
2015-11-03 00:37:00,0.0,1.95452,0.00052,407.573,0.030,0.1604,0.0012,139.999,45.000,31584.66885,1.95763,408.362,34.644,45.069,45.000,0.00,0.09,-272.75,-272.81,-5,521,-932,19.9,5.2,-20.4,20.2,5.2,-20.2,5.73,1.97,-11.7,26.4
2015-11-03 00:38:00,0.0,1.95345,0.00036,407.554,0.020,0.1604,0.0014,139.998,45.000,31582.24378,1.95656,408.343,34.624,45.069,45.000,0.00,0.09,-272.74,-272.80,-6,520,-932,19.9,5.2,-20.5,20.2,5.2,-20.2,5.73,1.76,-11.8,26.4
2015-11-03 00:39:00,0.0,1.95276,0.00045,407.537,0.032,0.1610,0.0021,139.998,45.001,31581.54621,1.95589,408.330,34.580,45.069,45.000,0.00,0.09,-272.75,-272.80,-7,521,-932,19.8,5.2,-20.4,20.2,5.2,-20.2,5.73,2.10,-11.8,26.4
2015-11-03 00:40:00,0.0,1.95279,0.00034,407.632,0.068,0.1602,0.0010,139.997,45.000,31578.18580,1.95587,408.415,34.518,45.069,45.000,0.00,0.09,-272.75,-272.82,-6,521,-932,19.8,5.2,-20.4,20.1,5.2,-20.2,5.73,1.91,-11.8,26.4
2015-11-03 00:41:00,0.0,1.95277,0.00041,407.601,0.062,0.1601,0.0016,140.000,45.000,31576.79076,1.95585,408.391,34.494,45.069,45.001,0.00,0.09,-272.75,-272.81,-5,520,-932,19.8,5.2,-20.4,20.1,5.2,-20.2,5.73,1.79,-11.8,26.3
2015-11-03 00:42:00,0.0,1.95275,0.00042,407.516,0.039,0.1613,0.0016,139.998,45.000,31574.17056,1.95585,408.310,34.455,45.069,45.000,0.00,0.09,-272.75,-272.80,-7,520,-932,19.8,5.3,-20.4,20.1,5.3,-20.1,5.73,2.13,-11.8,26.4
2015-11-03 00:43:00,0.0,1.95249,0.00054,407.508,0.022,0.1620,0.0015,139.999,44.999,31572.33638,1.95568,408.304,34.432,45.069,45.001,0.00,0.09,-272.74,-272.82,-6,520,-932,19.7,5.3,-20.3,20.0,5.3,-20.1,5.73,1.87,-11.8,26.3
2015-11-03 00:44:00,0.0,1.95320,0.00043,407.525,0.033,0.1631,0.0017,139.999,45.000,31568.29234,1.95627,408.326,34.381,45.070,45.000,0.00,0.09,-272.75,-272.81,-5,520,-932,19.7,5.3,-20.3,20.0,5.3,-20.1,5.73,1.82,-11.8,26.4
2015-11-03 00:45:00,0.0,1.95394,0.00050,407.601,0.041,0.1625,0.0016,140.002,45.000,31567.53353,1.95703,408.398,34.356,45.069,45.000,0.00,0.09,-272.75,-272.81,-6,520,-932,19.7,5.3,-20.3,20.0,5.4,-20.0,5.73,2.13,-11.8,26.3
2015-11-03 00:46:00,0.0,1.95417,0.00075,407.645,0.041,0.1633,0.0016,139.997,45.000,31565.81288,1.95732,408.449,34.313,45.069,45.000,0.00,0.09,-272.75,-272.81,-7,520,-932,19.6,5.4,-20.2,20.0,5.4,-20.0,5.73,1.84,-11.8,26.3
2015-11-03 00:47:00,0.0,1.95444,0.00050,407.700,0.032,0.1658,0.0020,140.001,45.000,31567.18207,1.95766,408.515,34.310,45.069,45.000,0.00,0.09,-272.75,-272.80,-6,520,-932,19.6,5.5,-20.0,19.9,5.4,-19.9,5.73,1.85,-11.8,26.3
2015-11-03 00:48:00,0.0,1.95570,0.00051,407.773,0.038,0.1697,0.0018,139.998,45.000,31565.75411,1.95890,408.607,34.305,45.069,45.000,0.00,0.09,-272.75,-272.80,-5,520,-932,19.6,5.6,-19.7,19.9,5.6,-19.6,5.73,2.13,-11.8,26.2
2015-11-03 00:49:00,0.0,1.95698,0.00048,407.849,0.041,0.1729,0.0019,140.000,45.001,31564.68357,1.96027,408.697,34.261,45.069,45.000,0.00,0.09,-272.74,-272.80,-7,520,-932,19.6,5.8,-19.5,19.9,5.7,-19.3,5.73,1.82,-11.7,26.2
2015-11-03 00:50:00,0.0,1.95831,0.00066,407.877,0.046,0.1738,0.0015,139.999,45.000,31566.08350,1.96165,408.732,34.260,45.069,45.000,0.00,0.09,-272.75,-272.80,-6,520,-932,19.5,5.8,-19.5,19.9,5.8,-19.2,5.73,1.88,-11.7,26.2
2015-11-03 00:51:00,0.0,1.95860,0.00047,407.918,0.039,0.1742,0.0021,140.000,45.000,31565.70742,1.96194,408.777,34.255,45.069,45.000,0.00,0.09,-272.75,-272.80,-5,520,-932,19.5,5.8,-19.4,19.9,5.8,-19.2,5.73,2.12,-11.6,26.1
2015-11-03 00:52:00,0.0,1.95760,0.00061,407.865,0.047,0.1750,0.0015,140.000,45.001,31563.24426,1.96106,408.726,34.250,45.069,44.999,0.00,0.09,-272.74,-272.80,-6,519,-932,19.5,5.8,-19.3,19.9,5.8,-19.2,5.73,1.79,-11.6,26.1
2015-11-03 00:53:00,0.0,1.95655,0.00059,407.837,0.033,0.1765,0.0016,139.997,45.000,31559.50741,1.96002,408.706,34.250,45.069,44.999,0.00,0.09,-272.75,-272.81,-7,520,-932,19.5,5.9,-19.3,19.8,5.9,-19.1,5.73,1.94,-11.5,26.1
2015-11-03 00:54:00,0.0,1.95604,0.00031,407.843,0.036,0.1771,0.0015,139.998,44.999,31557.08288,1.95945,408.715,34.250,45.069,44.999,0.00,0.09,-272.75,-272.81,-5,520,-932,19.5,5.9,-19.2,19.8,5.9,-19.0,5.73,2.10,-11.5,26.1
2015-11-03 00:55:00,0.0,1.95622,0.00033,407.863,0.033,0.1781,0.0016,140.001,44.999,31557.73112,1.95964,408.740,34.247,45.069,44.999,0.00,0.09,-272.74,-272.81,-5,519,-932,19.5,6.0,-19.1,19.8,5.9,-18.9,5.73,1.75,-11.5,26.1
2015-11-03 00:56:00,0.0,1.95740,0.00083,407.935,0.089,0.1789,0.0017,140.001,44.999,31555.97367,1.96081,408.813,34.249,45.069,44.999,0.00,0.09,-272.75,-272.80,-7,519,-932,19.5,6.0,-19.1,19.8,6.0,-18.9,5.73,2.01,-11.5,26.1
2015-11-03 00:57:00,0.0,1.95786,0.00126,408.013,0.065,0.1791,0.0022,140.002,44.999,31556.15128,1.96138,408.897,34.249,45.069,45.000,0.00,0.09,-272.75,-272.81,-6,520,-932,19.5,6.0,-19.1,19.8,6.0,-18.9,5.73,2.04,-11.5,26.1
2015-11-03 00:58:00,0.0,1.95639,0.00049,407.883,0.056,0.1791,0.0016,140.000,44.999,31553.70365,1.95984,408.766,34.250,45.069,45.000,0.00,0.09,-272.75,-272.81,-5,519,-932,19.5,6.0,-19.0,19.8,6.0,-18.8,5.73,1.76,-11.5,26.1
2015-11-03 00:59:00,0.0,1.96090,0.00174,408.035,0.084,0.1789,0.0017,140.000,44.999,31551.57332,1.96419,408.913,34.246,45.069,45.000,0.00,0.09,-272.75,-272.80,-6,519,-932,19.5,6.0,-19.1,19.8,6.0,-18.9,5.73,2.09,-11.5,26.1
2015-11-03 01:00:00,3.0,1.88805,0.02880,399.555,3.613,0.0415,0.0582,139.983,44.999,31404.70305,1.89173,399.955,34.248,45.069,45.000,0.00,0.09,-272.75,-272.81,-4,498,-932,19.5,6.0,-19.1,19.8,6.0,-18.9,5.73,1.80,-11.5,26.1
2015-11-03 01:01:00,3.0,1.87624,0.00030,397.238,0.050,0.0094,0.0017,139.997,44.999,31395.25656,1.87642,397.284,34.232,45.069,45.000,0.00,0.09,-272.75,-272.80,-3,498,-932,19.5,6.0,-19.1,19.8,6.0,-18.8,5.73,1.89,-11.5,26.1
2015-11-03 01:02:00,3.0,1.87604,0.00047,397.365,0.070,0.0094,0.0028,139.999,44.999,31395.55803,1.87621,397.406,34.227,45.069,45.000,0.00,0.09,-272.74,-272.80,-5,498,-932,19.5,6.0,-19.1,19.8,6.0,-18.8,5.73,2.00,-11.5,26.1
2015-11-03 01:03:00,3.0,1.87617,0.00046,397.525,0.029,0.0087,0.0021,139.999,45.000,31394.36182,1.87633,397.566,34.222,45.069,45.000,0.00,0.09,-272.76,-272.80,-4,498,-932,19.5,6.0,-19.1,19.8,6.0,-18.9,5.73,1.77,-11.5,26.1
2015-11-03 01:04:00,3.0,1.87619,0.00030,397.527,0.034,0.0071,0.0026,140.000,44.999,31393.86063,1.87631,397.562,34.204,45.069,45.000,0.00,0.09,-272.75,-272.81,-4,498,-932,19.5,5.9,-19.2,19.8,6.0,-18.9,5.73,2.10,-11.5,26.1
2015-11-03 01:05:00,3.0,1.87616,0.00048,397.546,0.031,0.0060,0.0023,140.000,44.999,31394.43571,1.87629,397.574,34.192,45.069,45.000,0.00,0.09,-272.74,-272.81,-5,499,-932,19.5,5.9,-19.2,19.8,5.9,-18.9,5.73,1.71,-11.5,26.1
2015-11-03 01:06:00,3.0,1.87621,0.00029,397.562,0.019,0.0051,0.0024,139.998,44.999,31394.83293,1.87628,397.586,34.190,45.069,45.000,0.00,0.09,-272.75,-272.80,-3,499,-932,19.6,5.9,-19.2,19.9,5.9,-18.9,5.73,2.11,-11.5,26.1
2015-11-03 01:07:00,3.0,1.87620,0.00044,397.556,0.027,0.0038,0.0017,140.000,44.999,31397.03529,1.87626,397.574,34.201,45.069,45.000,0.00,0.09,-272.75,-272.82,-5,499,-932,19.6,5.9,-19.2,19.9,5.9,-19.0,5.73,1.76,-11.5,26.1
2015-11-03 01:08:00,3.0,1.87619,0.00040,397.565,0.035,0.0027,0.0020,139.999,45.000,31398.07828,1.87625,397.577,34.227,45.069,45.000,0.00,0.09,-272.75,-272.81,-4,500,-932,19.6,5.9,-19.2,19.9,5.9,-18.9,5.73,2.02,-11.5,26.2
2015-11-03 01:09:00,3.0,1.87632,0.00035,397.561,0.029,0.0033,0.0017,139.997,45.000,31398.56563,1.87637,397.577,34.208,45.069,45.000,0.00,0.09,-272.74,-272.81,-4,500,-932,19.7,5.9,-19.2,19.9,5.9,-18.9,5.73,1.87,-11.6,26.1
2015-11-03 01:10:00,3.0,1.87618,0.00030,397.541,0.040,0.0022,0.0017,139.998,45.000,31402.09756,1.87622,397.553,34.196,45.069,45.000,0.00,0.09,-272.75,-272.81,-5,500,-932,19.7,5.9,-19.1,19.9,5.9,-18.9,5.73,1.88,-11.6,26.2
2015-11-03 01:11:00,3.0,1.87639,0.00035,397.560,0.034,0.0019,0.0022,139.997,45.000,31402.67230,1.87643,397.569,34.197,45.069,45.000,0.00,0.09,-272.75,-272.81,-4,500,-932,19.8,5.9,-19.0,20.0,6.0,-18.8,5.73,2.01,-11.6,26.2
2015-11-03 01:12:00,3.0,1.87641,0.00035,397.570,0.032,0.0020,0.0017,140.001,45.000,31404.16294,1.87644,397.578,34.223,45.069,45.000,0.00,0.09,-272.75,-272.80,-5,501,-932,19.8,6.0,-18.7,20.0,6.0,-18.6,5.73,1.77,-11.6,26.2
2015-11-03 01:13:00,3.0,1.87632,0.00029,397.566,0.029,0.0012,0.0023,140.001,45.000,31407.39268,1.87634,397.573,34.238,45.069,45.000,0.00,0.09,-272.76,-272.81,-5,501,-932,19.8,6.1,-18.5,20.0,6.2,-18.3,5.73,2.10,-11.6,26.2
2015-11-03 01:14:00,3.0,1.87645,0.00023,397.562,0.034,0.0019,0.0026,139.998,45.000,31407.66287,1.87649,397.570,34.243,45.069,45.000,0.00,0.09,-272.75,-272.81,-4,501,-932,19.9,6.1,-18.5,20.1,6.2,-18.3,5.73,1.71,-11.6,26.2
2015-11-03 01:15:00,3.0,1.87633,0.00039,397.567,0.029,0.0010,0.0017,139.997,45.000,31408.21614,1.87635,397.573,34.249,45.069,45.000,0.00,0.09,-272.75,-272.80,-6,501,-932,19.9,6.0,-18.7,20.1,6.1,-18.4,5.73,2.11,-11.6,26.3
2015-11-03 01:16:00,3.0,1.87649,0.00036,397.570,0.028,0.0013,0.0022,139.999,45.000,31410.25598,1.87652,397.576,34.250,45.069,45.000,0.00,0.09,-272.74,-272.80,-4,501,-932,20.0,6.0,-18.8,20.1,6.0,-18.5,5.73,1.73,-11.6,26.3
2015-11-03 01:17:00,3.0,1.87657,0.00025,397.579,0.023,0.0008,0.0018,140.001,45.000,31411.06007,1.87656,397.583,34.250,45.069,45.000,0.00,0.09,-272.76,-272.81,-5,502,-932,20.0,5.9,-18.8,20.2,6.0,-18.6,5.73,2.04,-11.6,26.3
2015-11-03 01:18:00,3.0,1.87662,0.00035,397.571,0.024,0.0005,0.0020,140.000,45.000,31411.16072,1.87665,397.574,34.250,45.069,45.000,0.00,0.09,-272.74,-272.81,-5,502,-932,20.1,5.9,-18.8,20.2,6.0,-18.6,5.73,1.84,-11.6,26.3
2015-11-03 01:19:00,3.0,1.87652,0.00030,397.583,0.041,0.0008,0.0021,140.000,45.000,31413.18466,1.87651,397.587,34.252,45.069,45.000,0.00,0.09,-272.75,-272.80,-4,502,-932,20.1,5.9,-18.8,20.3,6.0,-18.6,5.73,1.92,-11.6,26.3
2015-11-03 01:20:00,3.0,1.87669,0.00044,397.586,0.022,0.0013,0.0019,140.000,45.000,31415.81519,1.87672,397.591,34.289,45.069,45.000,0.00,0.09,-272.75,-272.81,-6,502,-932,20.2,5.8,-18.9,20.3,5.9,-18.6,5.73,1.96,-11.6,26.3
2015-11-03 01:21:00,3.0,1.87659,0.00038,397.605,0.032,0.0010,0.0026,140.000,45.000,31416.10230,1.87660,397.609,34.306,45.069,45.000,0.00,0.09,-272.75,-272.81,-4,502,-932,20.2,5.8,-19.0,20.3,5.9,-18.7,5.73,1.81,-11.6,26.4
2015-11-03 01:22:00,3.0,1.87672,0.00040,397.576,0.025,0.0003,0.0020,139.999,45.000,31417.82090,1.87672,397.578,34.305,45.069,45.000,0.00,0.09,-272.74,-272.81,-5,502,-932,20.2,5.7,-19.1,20.3,5.8,-18.8,5.73,2.05,-11.6,26.4
2015-11-03 01:23:00,3.0,1.87663,0.00036,397.583,0.024,0.0013,0.0012,140.000,45.000,31419.21244,1.87669,397.588,34.308,45.069,45.000,0.00,0.09,-272.75,-272.81,-6,503,-932,20.3,5.7,-19.1,20.4,5.8,-18.9,5.73,1.73,-11.6,26.4
2015-11-03 01:24:00,3.0,1.87661,0.00044,397.581,0.029,0.0010,0.0018,140.000,45.000,31420.78620,1.87659,397.586,34.313,45.069,45.000,0.00,0.09,-272.75,-272.81,-4,503,-932,20.3,5.6,-19.2,20.4,5.7,-18.9,5.73,2.10,-11.6,26.4
2015-11-03 01:25:00,2.0,1.85237,0.01322,391.050,2.942,0.0057,0.0046,140.035,45.000,31985.10948,1.85349,391.208,34.313,45.069,45.000,0.00,0.09,-272.74,-272.80,-6,590,-931,20.4,5.6,-19.2,20.5,5.7,-18.9,5.73,1.72,-11.6,26.4
2015-11-03 01:26:00,2.0,1.84641,0.00034,389.591,0.029,0.0055,0.0016,140.001,45.000,32046.04004,1.84652,389.617,34.315,45.069,45.000,0.00,0.09,-272.75,-272.80,-5,592,-931,20.4,5.6,-19.2,20.5,5.7,-18.9,5.73,2.10,-11.6,26.5
2015-11-03 01:27:00,2.0,1.84638,0.00026,389.596,0.028,0.0065,0.0018,140.001,45.000,32061.91897,1.84650,389.627,34.314,45.069,45.000,0.00,0.09,-272.75,-272.81,-5,592,-931,20.5,5.6,-19.2,20.5,5.7,-18.9,5.73,1.72,-11.6,26.5
2015-11-03 01:28:00,2.0,1.84661,0.00045,389.604,0.022,0.0054,0.0021,140.000,45.000,32072.60822,1.84671,389.629,34.313,45.069,45.000,0.00,0.09,-272.76,-272.81,-6,593,-931,20.5,5.6,-19.1,20.6,5.7,-18.8,5.73,2.06,-11.6,26.5
2015-11-03 01:29:00,2.0,1.84635,0.00039,389.588,0.020,0.0039,0.0017,140.000,45.001,32083.19103,1.84641,389.606,34.329,45.069,45.000,0.00,0.09,-272.74,-272.80,-4,593,-931,20.6,5.6,-19.1,20.6,5.7,-18.8,5.73,1.78,-11.6,26.6
2015-11-03 01:30:00,2.0,1.84637,0.00039,389.592,0.020,0.0035,0.0021,140.000,45.001,32093.08879,1.84643,389.609,34.354,45.069,45.000,0.00,0.09,-272.75,-272.80,-6,593,-931,20.6,5.6,-19.0,20.7,5.7,-18.8,5.73,1.99,-11.6,26.6
2015-11-03 01:31:00,2.0,1.84661,0.00034,389.583,0.025,0.0025,0.0019,140.000,45.001,32099.03588,1.84665,389.595,34.365,45.069,45.000,0.00,0.09,-272.75,-272.81,-5,593,-931,20.7,5.7,-18.9,20.7,5.8,-18.7,5.73,1.85,-11.6,26.6
2015-11-03 01:32:00,2.0,1.84650,0.00033,389.593,0.037,0.0021,0.0015,140.000,45.000,32102.62972,1.84655,389.603,34.367,45.069,45.000,0.00,0.09,-272.74,-272.80,-5,593,-931,20.7,5.8,-18.7,20.7,5.8,-18.5,5.73,1.90,-11.6,26.6
2015-11-03 01:33:00,2.0,1.84641,0.00033,389.560,0.031,0.0013,0.0011,140.001,45.000,32109.80471,1.84642,389.567,34.373,45.069,45.000,0.00,0.09,-272.74,-272.81,-6,593,-931,20.7,5.9,-18.3,20.7,6.0,-18.2,5.73,1.94,-11.6,26.6
2015-11-03 01:34:00,2.0,1.84676,0.00031,389.598,0.031,0.0005,0.0018,139.998,45.000,32112.15300,1.84679,389.600,34.375,45.069,45.000,0.00,0.09,-272.75,-272.81,-4,593,-931,20.8,6.0,-18.0,20.8,6.1,-17.9,5.73,1.82,-11.6,26.7
2015-11-03 01:35:00,2.0,1.84646,0.00036,389.588,0.026,0.0019,0.0015,139.998,45.000,32116.94110,1.84648,389.597,34.377,45.069,45.000,0.00,0.09,-272.74,-272.81,-6,593,-931,20.9,6.0,-18.1,20.8,6.1,-17.8,5.73,2.02,-11.6,26.7
2015-11-03 01:36:00,2.0,1.84651,0.00047,389.611,0.028,0.0008,0.0014,139.999,45.000,32118.58552,1.84653,389.614,34.390,45.069,45.000,0.00,0.09,-272.74,-272.80,-5,593,-931,20.9,5.9,-18.2,20.9,6.1,-17.9,5.73,1.76,-11.6,26.7
2015-11-03 01:37:00,2.0,1.84653,0.00031,389.609,0.018,0.0012,0.0023,139.999,45.000,32123.06637,1.84654,389.615,34.422,45.069,45.000,0.00,0.09,-272.75,-272.81,-6,593,-931,20.9,5.8,-18.5,20.9,5.9,-18.2,5.73,2.07,-11.6,26.7
2015-11-03 01:38:00,2.0,1.84634,0.00041,389.600,0.024,0.0011,0.0018,139.997,45.000,32126.64679,1.84637,389.606,34.437,45.069,45.000,0.00,0.09,-272.75,-272.81,-6,594,-931,21.0,5.6,-18.7,20.9,5.8,-18.4,5.73,1.72,-11.6,26.8
2015-11-03 01:39:00,2.0,1.84648,0.00034,389.592,0.036,0.0011,0.0019,139.999,45.000,32128.52024,1.84651,389.597,34.438,45.069,45.000,0.00,0.09,-272.75,-272.80,-5,594,-931,21.0,5.6,-18.8,20.9,5.7,-18.6,5.73,2.10,-11.6,26.8
2015-11-03 01:40:00,2.0,1.84620,0.00024,389.602,0.022,0.0006,0.0019,139.998,45.000,32131.22479,1.84624,389.605,34.458,45.069,45.000,0.00,0.09,-272.75,-272.81,-6,594,-931,21.0,5.6,-18.7,21.0,5.7,-18.5,5.73,1.70,-11.6,26.8
2015-11-03 01:41:00,2.0,1.84636,0.00038,389.623,0.022,0.0008,0.0021,140.001,45.000,32133.21259,1.84637,389.626,34.489,45.069,45.000,0.00,0.09,-272.76,-272.81,-5,594,-931,21.0,5.7,-18.4,21.0,5.9,-18.3,5.73,2.10,-11.6,26.8
2015-11-03 01:42:00,2.0,1.84596,0.00036,389.588,0.025,0.0008,0.0013,139.999,45.000,32135.49496,1.84597,389.592,34.478,45.069,45.000,0.00,0.09,-272.74,-272.80,-6,594,-931,21.1,5.7,-18.5,21.0,5.9,-18.2,5.73,1.71,-11.6,26.8
2015-11-03 01:43:00,2.0,1.84630,0.00022,389.606,0.032,0.0011,0.0023,139.996,45.000,32132.37768,1.84634,389.612,34.495,45.069,45.000,0.00,0.09,-272.76,-272.80,-5,594,-931,21.1,5.8,-18.3,21.1,5.9,-18.1,5.73,2.09,-11.6,26.8
2015-11-03 01:44:00,2.0,1.84650,0.00043,389.598,0.031,0.0001,0.0014,140.000,45.000,32133.74320,1.84647,389.598,34.496,45.069,45.000,0.00,0.09,-272.75,-272.81,-5,594,-931,21.2,5.8,-18.3,21.1,5.9,-18.0,5.73,1.72,-11.6,26.9